カタログに戻る

STARLINK-32005

運用中通信VLEO
NORAD 60034·PAYLOAD·🇺🇸 United States

打ち上げ Jun 8, 2024 から Cape Canaveral Space Force Station

Loading…

次のパス (今後24時間)

TLE

最新Source: CelesTrak SupGP

元期: Sep 15, 2026, 02:01 UTC

1 60034C 24111U   26258.08451389  .00010781  00000+0  31851-3 0  2588
2 60034  53.1570 274.9051 0001186  93.7641 308.0768 15.34387643    17

AllMySatでSTARLINK-32005をリアルタイム追跡

Download on the App Store